Weather History for KTIF - September, 2013

Change the Weather History Date:

Tuesday, September 3, 2013

  Actual Average (KLBF) Record (KLBF)
Temperature  
Mean Temperature 76 °F 68 °F  
Max Temperature 92 °F 83 °F 99 °F (1954)
Min Temperature 61 °F 53 °F 26 °F (1974)
Degree Days  
Heating Degree Days 0 2  
Month to date heating degree days 6  
Since 1 July heating degree days 26  
Cooling Degree Days 12 5  
Month to date cooling degree days 15  
Year to date cooling degree days 710  
Growing Degree Days 26 (Base 50)    
Moisture  
Dew Point 54 °F    
Average Humidity 47    
Maximum Humidity 77    
Minimum Humidity 25    
Precipitation  
Precipitation 0.00 in 0.04 in 0.73 in (1920)
Month to date precipitation 0.14  
Year to date precipitation 16.36  
Snow  
Snow 0.00 in 0.00 in 0.00 in (2002)
Month to date snowfall 0.0  
Since 1 July snowfall 0.0  
Since 1 September snowfall 0.0  
Snow Depth -    
Sea Level Pressure  
Sea Level Pressure 30.03 in    
Wind  
Wind Speed 11 mph (South)    
Max Wind Speed 24 mph    
Max Gust Speed 30 mph    
Visibility 10 miles    
Events      
T = Trace of Precipitation, MM = Missing Value Source: NWS Daily Summary

Daily Weather History Graph

Daily Weather History Graph

Search for Another Location

Airport or City:

Trip Planner

Search our weather history database for the weather conditions in past years. The results will help you decide how hot, cold, wet, or windy it might be!

Date:

Astronomy

Sep. 03, 2013 Rise Set
Actual Time 7:10 AM CDT 8:11 PM CDT
Civil Twilight 6:41 AM CDT 8:40 PM CDT
Nautical Twilight 6:07 AM CDT 9:14 PM CDT
Astronomical Twilight 5:31 AM CDT 9:49 PM CDT
Moon 5:25 AM CDT (9/3) 7:00 PM CDT (9/3)
Length of Visible Light 13h 58m
Length of Day
13h 01m
Waning Crescent, 3% of the Moon is Illuminated
Sep 3
Waning Crescent
Sep 5
New
Sep 12
First Quarter
Sep 19
Full
Sep 26
Last Quarter

Hourly Weather History & Observations

Time (CDT) Temp. Heat Index Dew Point Humidity Pressure Visibility Wind Dir Wind Speed Gust Speed Precip Events Conditions
12:15 AM 69.8 °F - 56.3 °F 62% 30.06 in 10.0 mi SSE 13.8 mph - N/A   Clear
12:35 AM 69.6 °F - 56.5 °F 63% 30.05 in 10.0 mi SSE 10.4 mph - N/A   Clear
12:55 AM 69.1 °F - 56.3 °F 64% 30.05 in 10.0 mi South 11.5 mph - N/A   Clear
1:15 AM 69.8 °F - 55.9 °F 61% 30.05 in 10.0 mi South 12.7 mph 16.1 mph N/A   Clear
1:35 AM 69.8 °F - 55.9 °F 61% 30.06 in 10.0 mi South 11.5 mph - N/A   Clear
1:55 AM 69.1 °F - 55.9 °F 63% 30.06 in 10.0 mi South 11.5 mph - N/A   Clear
2:15 AM 68.9 °F - 55.6 °F 62% 30.06 in 10.0 mi South 11.5 mph - N/A   Clear
2:35 AM 68.9 °F - 55.4 °F 62% 30.06 in 10.0 mi South 11.5 mph - N/A   Clear
2:55 AM 68.4 °F - 55.0 °F 62% 30.06 in 10.0 mi South 11.5 mph - N/A   Clear
3:15 AM 68.0 °F - 55.0 °F 63% 30.07 in 10.0 mi South 8.1 mph - N/A   Clear
3:35 AM 67.1 °F - 54.9 °F 65% 30.07 in 10.0 mi South 5.8 mph - N/A   Clear
3:55 AM 66.2 °F - 54.9 °F 67% 30.07 in 10.0 mi South 5.8 mph - N/A   Clear
4:15 AM 65.8 °F - 54.9 °F 68% 30.07 in 10.0 mi SSW 3.5 mph - N/A   Clear
4:35 AM 65.3 °F - 54.9 °F 69% 30.07 in 10.0 mi South 3.5 mph - N/A   Clear
4:55 AM 64.6 °F - 54.9 °F 71% 30.06 in 10.0 mi South 5.8 mph - N/A   Clear
5:15 AM 64.4 °F - 54.7 °F 71% 30.07 in 10.0 mi South 4.6 mph - N/A   Clear
5:35 AM 64.4 °F - 54.5 °F 70% 30.06 in 10.0 mi South 4.6 mph - N/A   Clear
5:55 AM 63.9 °F - 54.5 °F 72% 30.06 in 10.0 mi South 4.6 mph - N/A   Clear
6:15 AM 63.9 °F - 54.3 °F 71% 30.06 in 10.0 mi South 4.6 mph - N/A   Clear
6:35 AM 63.7 °F - 54.3 °F 72% 30.05 in 10.0 mi South 4.6 mph - N/A   Clear
6:55 AM 63.7 °F - 54.0 °F 71% 30.06 in 10.0 mi Calm Calm - N/A   Clear
7:15 AM 63.0 °F - 54.1 °F 73% 30.06 in 10.0 mi South 3.5 mph - N/A   Clear
7:35 AM 61.5 °F - 54.3 °F 77% 30.07 in 10.0 mi Calm Calm - N/A   Clear
7:55 AM 64.4 °F - 54.5 °F 70% 30.07 in 10.0 mi South 6.9 mph - N/A   Clear
8:15 AM 66.4 °F - 54.5 °F 66% 30.07 in 10.0 mi South 8.1 mph - N/A   Clear
8:35 AM 68.2 °F - 54.5 °F 62% 30.07 in 10.0 mi South 10.4 mph - N/A   Clear
8:55 AM 69.8 °F - 54.5 °F 58% 30.07 in 10.0 mi SSW 11.5 mph 17.3 mph N/A   Clear
9:15 AM 72.1 °F - 54.5 °F 54% 30.07 in 10.0 mi South 12.7 mph 18.4 mph N/A   Clear
9:35 AM 73.8 °F - 54.7 °F 51% 30.06 in 10.0 mi SSW 12.7 mph 19.6 mph N/A   Clear
9:55 AM 76.1 °F - 54.5 °F 47% 30.07 in 10.0 mi SSW 15.0 mph 20.7 mph N/A   Clear
10:15 AM 77.0 °F - 54.5 °F 46% 30.06 in 10.0 mi SSW 18.4 mph 23.0 mph N/A   Clear
10:35 AM 79.0 °F - 52.5 °F 40% 30.06 in 10.0 mi SSW 15.0 mph 27.6 mph N/A   Clear
10:55 AM 80.1 °F - 51.6 °F 37% 30.05 in 10.0 mi SSW 19.6 mph 25.3 mph N/A   Clear
11:15 AM 82.2 °F - 48.2 °F 30% 30.06 in 10.0 mi SSW 24.2 mph 29.9 mph N/A   Clear
11:35 AM 82.4 °F - 49.1 °F 31% 30.05 in 10.0 mi SSW 18.4 mph 29.9 mph N/A   Clear
11:55 AM 82.6 °F - 48.7 °F 31% 30.05 in 10.0 mi SSW 20.7 mph 27.6 mph N/A   Clear
12:15 PM 82.9 °F - 49.5 °F 31% 30.04 in 10.0 mi South 17.3 mph 26.5 mph N/A   Clear
12:35 PM 83.1 °F - 50.4 °F 32% 30.05 in 10.0 mi SSW 17.3 mph 24.2 mph N/A   Clear
12:55 PM 84.4 °F - 50.5 °F 31% 30.04 in 10.0 mi SSW 17.3 mph 25.3 mph N/A   Clear
1:15 PM 84.7 °F - 50.2 °F 30% 30.04 in 10.0 mi South 18.4 mph 26.5 mph N/A   Clear
1:35 PM 84.4 °F - 50.2 °F 30% 30.03 in 10.0 mi South 15.0 mph 24.2 mph N/A   Clear
1:55 PM 85.5 °F - 50.4 °F 30% 30.03 in 10.0 mi South 18.4 mph 23.0 mph N/A   Clear
2:15 PM 87.1 °F - 51.1 °F 29% 30.03 in 10.0 mi South 13.8 mph - N/A   Clear
2:35 PM 87.8 °F - 51.4 °F 29% 30.03 in 10.0 mi South 17.3 mph 20.7 mph N/A   Clear
2:55 PM 88.9 °F - 51.4 °F 28% 30.01 in 10.0 mi SSE 13.8 mph 20.7 mph N/A   Clear
3:15 PM 89.6 °F - 51.6 °F 27% 30.00 in 10.0 mi South 18.4 mph 21.9 mph N/A   Clear
3:35 PM 91.6 °F - 51.3 °F 25% 29.99 in 10.0 mi SSW 15.0 mph 24.2 mph N/A   Clear
3:55 PM 91.8 °F - 51.4 °F 25% 29.99 in 10.0 mi South 19.6 mph 24.2 mph N/A   Clear
4:15 PM 91.4 °F - 51.6 °F 26% 29.99 in 10.0 mi South 15.0 mph 25.3 mph N/A   Clear
4:35 PM 91.9 °F - 51.8 °F 25% 29.99 in 10.0 mi South 17.3 mph 23.0 mph N/A   Clear
4:55 PM 92.7 °F - 52.3 °F 25% 29.99 in 10.0 mi South 15.0 mph 21.9 mph N/A   Clear
5:15 PM 92.7 °F - 52.0 °F 25% 29.99 in 10.0 mi South 17.3 mph 21.9 mph N/A   Clear
5:35 PM 92.7 °F - 52.2 °F 25% 29.98 in 10.0 mi South 17.3 mph - N/A   Clear
5:55 PM 92.7 °F - 52.5 °F 25% 29.99 in 10.0 mi South 15.0 mph 20.7 mph N/A   Clear
6:15 PM 92.3 °F - 52.9 °F 26% 29.98 in 10.0 mi South 12.7 mph - N/A   Clear
6:35 PM 91.8 °F - 52.9 °F 27% 29.98 in 10.0 mi SSE 12.7 mph - N/A   Clear
6:55 PM 90.9 °F 88.5 °F 53.8 °F 28% 29.98 in 10.0 mi SSE 10.4 mph - N/A   Clear
7:15 PM 89.1 °F 87.1 °F 54.7 °F 31% 29.98 in 10.0 mi SSE 9.2 mph - N/A   Clear
7:35 PM 87.1 °F 85.5 °F 55.8 °F 34% 29.98 in 10.0 mi SSE 8.1 mph - N/A   Clear
7:55 PM 84.0 °F 83.2 °F 56.8 °F 39% 29.98 in 10.0 mi SSE 8.1 mph - N/A   Clear
8:15 PM 82.9 °F 82.1 °F 55.6 °F 39% 29.98 in 10.0 mi SSE 10.4 mph - N/A   Clear
8:35 PM 81.1 °F 81.0 °F 55.9 °F 42% 29.98 in 10.0 mi SSE 9.2 mph - N/A   Clear
8:55 PM 80.4 °F 80.4 °F 55.4 °F 42% 29.99 in 10.0 mi SE 8.1 mph - N/A   Clear
9:15 PM 78.6 °F - 56.1 °F 46% 30.00 in 10.0 mi SE 8.1 mph - N/A   Clear
9:35 PM 77.9 °F - 56.7 °F 48% 30.00 in 10.0 mi SSE 11.5 mph - N/A   Clear
9:55 PM 77.2 °F - 56.3 °F 48% 30.01 in 10.0 mi SE 10.4 mph - N/A   Clear
10:15 PM 76.1 °F - 56.3 °F 50% 30.02 in 10.0 mi SE 10.4 mph - N/A   Clear
10:35 PM 75.6 °F - 56.7 °F 52% 30.02 in 10.0 mi SSE 10.4 mph - N/A   Clear
10:55 PM 75.6 °F - 56.8 °F 52% 30.03 in 10.0 mi SE 10.4 mph - N/A   Clear
11:15 PM 76.1 °F - 56.7 °F 51% 30.02 in 10.0 mi SSE 15.0 mph - N/A   Scattered Clouds
11:35 PM 76.5 °F - 56.3 °F 50% 30.03 in 10.0 mi SSE 16.1 mph - N/A   Clear
11:55 PM 76.5 °F - 55.9 °F 49% 30.03 in 10.0 mi SSE 16.1 mph 21.9 mph N/A   Clear